OYYOR EKOD-EKCH

Flight info

Callsign OYYOR
Flight time 0h 50m
Altitude 6000
Route ODN DCT KOR DCT KAS
Aircraft C172/L-FGO/C

Departure

Time 2026-04-24 10:33
Airport Odense Hans Christian Andersen Airport (EKOD)

Arrival

Time 2026-04-24 11:23
Airport Copenhagen Kastrup Airport (EKCH)
Time Latitude Longitude Altitude Speed Heading
2026-04-24 10:08 55.47081 10.32785 57 ft 0 kts 316°
2026-04-24 10:27 55.47098 10.32760 57 ft 5 kts 324°
2026-04-24 10:27 55.47153 10.32774 57 ft 11 kts 27°
2026-04-24 10:27 55.47228 10.32845 57 ft 11 kts 38°
2026-04-24 10:28 55.47282 10.32877 57 ft 7 kts 330°
2026-04-24 10:28 55.47321 10.32830 57 ft 5 kts 322°
2026-04-24 10:28 55.47344 10.32789 57 ft 3 kts 314°
2026-04-24 10:28 55.47359 10.32763 57 ft 2 kts 313°
2026-04-24 10:29 55.47369 10.32745 57 ft 2 kts 316°
2026-04-24 10:29 55.47397 10.32724 57 ft 6 kts
2026-04-24 10:29 55.47442 10.32789 57 ft 10 kts 56°
2026-04-24 10:29 55.47485 10.32921 57 ft 14 kts 57°
2026-04-24 10:30 55.47533 10.33039 56 ft 4 kts 12°
2026-04-24 10:30 55.47540 10.33039 56 ft 0 kts 346°
2026-04-24 10:31 55.47547 10.33034 56 ft 3 kts 335°
2026-04-24 10:31 55.47580 10.33001 56 ft 7 kts 330°
2026-04-24 10:31 55.47610 10.32929 56 ft 8 kts 256°
2026-04-24 10:32 55.47523 10.32659 57 ft 50 kts 242°
2026-04-24 10:32 55.47278 10.31928 77 ft 81 kts 239°
2026-04-24 10:32 55.46974 10.31190 292 ft 75 kts 229°
2026-04-24 10:32 55.46584 10.30555 479 ft 73 kts 218°
2026-04-24 10:33 55.46105 10.30358 624 ft 79 kts 147°
2026-04-24 10:33 55.45954 10.31199 720 ft 82 kts 63°
2026-04-24 10:33 55.46205 10.32059 921 ft 73 kts 44°
2026-04-24 10:33 55.46545 10.32777 1007 ft 82 kts 38°
2026-04-24 10:34 55.46966 10.33527 1076 ft 87 kts 36°
2026-04-24 10:34 55.47397 10.34276 1167 ft 91 kts 39°
2026-04-24 10:34 55.47894 10.34948 1338 ft 88 kts 24°
2026-04-24 10:34 55.48434 10.35618 1362 ft 102 kts 34°
2026-04-24 10:35 55.48983 10.36349 1537 ft 95 kts 26°
2026-04-24 10:35 55.49507 10.37092 1634 ft 102 kts 48°
2026-04-24 10:35 55.49881 10.38172 1771 ft 100 kts 52°
2026-04-24 10:35 55.50236 10.39221 1891 ft 102 kts 53°
2026-04-24 10:36 55.50603 10.40297 2021 ft 101 kts 53°
2026-04-24 10:36 55.50961 10.41354 2138 ft 102 kts 53°
2026-04-24 10:36 55.51330 10.42444 2261 ft 101 kts 53°
2026-04-24 10:36 55.51649 10.43548 2373 ft 104 kts 57°
2026-04-24 10:37 55.51961 10.44695 2506 ft 102 kts 58°
2026-04-24 10:37 55.52272 10.45840 2607 ft 104 kts 58°
2026-04-24 10:37 55.52583 10.46988 2724 ft 103 kts 58°
2026-04-24 10:37 55.52890 10.48118 2839 ft 104 kts 58°
2026-04-24 10:38 55.53204 10.49281 2948 ft 104 kts 58°
2026-04-24 10:38 55.53506 10.50441 3064 ft 104 kts 61°
2026-04-24 10:38 55.53767 10.51635 3178 ft 105 kts 62°
2026-04-24 10:38 55.54030 10.52833 3289 ft 104 kts 60°
2026-04-24 10:39 55.54304 10.54013 3392 ft 104 kts 60°
2026-04-24 10:39 55.54574 10.55193 3504 ft 104 kts 60°
2026-04-24 10:39 55.54846 10.56370 3607 ft 104 kts 60°
2026-04-24 10:39 55.55124 10.57550 3713 ft 104 kts 57°
2026-04-24 10:40 55.55434 10.58709 3815 ft 104 kts 56°
2026-04-24 10:40 55.55745 10.59861 3918 ft 104 kts 56°
2026-04-24 10:40 55.56068 10.61056 3937 ft 112 kts 56°
2026-04-24 10:40 55.56419 10.62317 3929 ft 116 kts 56°
2026-04-24 10:41 55.56796 10.63596 3928 ft 117 kts 53°
2026-04-24 10:41 55.57207 10.64833 3923 ft 118 kts 53°
2026-04-24 10:41 55.57619 10.66081 3986 ft 114 kts 53°
2026-04-24 10:41 55.58008 10.67270 4110 ft 108 kts 54°
2026-04-24 10:42 55.58142 10.68583 4222 ft 112 kts 87°
2026-04-24 10:42 55.58045 10.69943 4345 ft 111 kts 91°
2026-04-24 10:42 55.57906 10.71276 4469 ft 110 kts 97°
2026-04-24 10:42 55.57687 10.72561 4582 ft 110 kts 106°
2026-04-24 10:43 55.57256 10.73716 4703 ft 112 kts 122°
2026-04-24 10:43 55.56784 10.74800 4825 ft 111 kts 123°
2026-04-24 10:43 55.56316 10.75861 4945 ft 111 kts 123°
2026-04-24 10:43 55.55840 10.76943 5076 ft 110 kts 120°
2026-04-24 10:44 55.55445 10.78080 5204 ft 108 kts 114°
2026-04-24 10:44 55.55067 10.79227 5331 ft 109 kts 113°
2026-04-24 10:44 55.54682 10.80386 5457 ft 109 kts 114°
2026-04-24 10:44 55.54327 10.81547 5584 ft 107 kts 108°
2026-04-24 10:45 55.54009 10.82732 5711 ft 107 kts 107°
2026-04-24 10:45 55.53693 10.83913 5840 ft 107 kts 107°
2026-04-24 10:45 55.53377 10.85103 5963 ft 106 kts 104°
2026-04-24 10:45 55.53088 10.86294 6084 ft 106 kts 103°
2026-04-24 10:46 55.52796 10.87575 6079 ft 118 kts 104°
2026-04-24 10:46 55.52494 10.88951 6034 ft 120 kts 104°
2026-04-24 10:46 55.52198 10.90300 5982 ft 117 kts 104°
2026-04-24 10:46 55.51906 10.91630 5934 ft 115 kts 104°
2026-04-24 10:47 55.51623 10.92910 5943 ft 110 kts 104°
2026-04-24 10:47 55.51354 10.94151 5945 ft 106 kts 98°
2026-04-24 10:47 55.51178 10.95399 5943 ft 104 kts 94°
2026-04-24 10:47 55.51015 10.96637 5942 ft 103 kts 94°
2026-04-24 10:48 55.50858 10.97870 5942 ft 102 kts 93°
2026-04-24 10:48 55.50701 10.99081 5941 ft 101 kts 93°
2026-04-24 10:48 55.50543 11.00311 5944 ft 102 kts 93°
2026-04-24 10:48 55.50390 11.01525 5944 ft 101 kts 93°
2026-04-24 10:49 55.50224 11.02733 5944 ft 102 kts 97°
2026-04-24 10:49 55.50024 11.03923 5945 ft 101 kts 97°
2026-04-24 10:49 55.49826 11.05117 5944 ft 101 kts 97°
2026-04-24 10:49 55.49627 11.06302 5944 ft 101 kts 97°
2026-04-24 10:50 55.49429 11.07481 5944 ft 100 kts 96°
2026-04-24 10:50 55.49231 11.08654 5944 ft 100 kts 97°
2026-04-24 10:50 55.49031 11.09847 5944 ft 100 kts 97°
2026-04-24 10:50 55.48833 11.11017 5945 ft 100 kts 97°
2026-04-24 10:51 55.48634 11.12194 5945 ft 100 kts 97°
2026-04-24 10:51 55.48436 11.13378 5943 ft 100 kts 96°
2026-04-24 10:51 55.48238 11.14556 5943 ft 101 kts 97°
2026-04-24 10:51 55.48101 11.15755 5945 ft 97 kts 83°
2026-04-24 10:52 55.48061 11.16936 5942 ft 97 kts 81°
2026-04-24 10:52 55.48024 11.18137 5942 ft 97 kts 82°
2026-04-24 10:52 55.47987 11.19341 5941 ft 98 kts 84°
2026-04-24 10:52 55.47898 11.20536 5940 ft 99 kts 87°
2026-04-24 10:53 55.47795 11.21733 5942 ft 99 kts 87°
2026-04-24 10:53 55.47691 11.22940 5941 ft 99 kts 87°
2026-04-24 10:53 55.47586 11.24135 5941 ft 99 kts 88°
2026-04-24 10:53 55.47480 11.25331 5939 ft 98 kts 86°
2026-04-24 10:54 55.47378 11.26527 5938 ft 98 kts 87°
2026-04-24 10:54 55.47278 11.27726 5938 ft 99 kts 87°
2026-04-24 10:54 55.47184 11.28918 5935 ft 99 kts 87°
2026-04-24 10:54 55.47091 11.30129 5934 ft 99 kts 87°
2026-04-24 10:55 55.46999 11.31333 5933 ft 99 kts 87°
2026-04-24 10:55 55.46907 11.32533 5932 ft 99 kts 86°
2026-04-24 10:55 55.46811 11.33737 5933 ft 99 kts 86°
2026-04-24 10:55 55.46713 11.34940 5933 ft 99 kts 87°
2026-04-24 10:56 55.46613 11.36147 5933 ft 99 kts 86°
2026-04-24 10:56 55.46513 11.37354 5934 ft 99 kts 86°
2026-04-24 10:56 55.46412 11.38555 5934 ft 100 kts 86°
2026-04-24 10:56 55.46309 11.39765 5933 ft 100 kts 86°
2026-04-24 10:57 55.46208 11.40971 5933 ft 100 kts 86°
2026-04-24 10:57 55.46108 11.42188 5933 ft 99 kts 87°
2026-04-24 10:57 55.46013 11.43390 5933 ft 99 kts 87°
2026-04-24 10:57 55.45923 11.44585 5933 ft 99 kts 86°
2026-04-24 10:58 55.45831 11.45784 5932 ft 99 kts 86°
2026-04-24 10:58 55.45734 11.46983 5933 ft 99 kts 86°
2026-04-24 10:58 55.45635 11.48189 5933 ft 99 kts 86°
2026-04-24 10:58 55.45540 11.49381 5931 ft 99 kts 86°
2026-04-24 10:59 55.45441 11.50587 5933 ft 99 kts 86°
2026-04-24 10:59 55.45345 11.51787 5934 ft 99 kts 86°
2026-04-24 10:59 55.45240 11.52998 5933 ft 99 kts 86°
2026-04-24 10:59 55.45101 11.54206 5932 ft 102 kts 94°
2026-04-24 11:00 55.44910 11.55401 5934 ft 102 kts 94°
2026-04-24 11:00 55.44706 11.56611 5933 ft 102 kts 95°
2026-04-24 11:00 55.44509 11.57805 5933 ft 102 kts 95°
2026-04-24 11:00 55.44309 11.59028 5933 ft 102 kts 95°
2026-04-24 11:01 55.44113 11.60225 5933 ft 102 kts 94°
2026-04-24 11:01 55.43917 11.61426 5934 ft 102 kts 95°
2026-04-24 11:01 55.43719 11.62635 5935 ft 102 kts 94°
2026-04-24 11:01 55.43526 11.63820 5933 ft 102 kts 95°
2026-04-24 11:02 55.43441 11.65023 5936 ft 94 kts 73°
2026-04-24 11:02 55.43518 11.66155 5934 ft 91 kts 63°
2026-04-24 11:02 55.43681 11.67238 5934 ft 91 kts 61°
2026-04-24 11:02 55.43851 11.68308 5933 ft 91 kts 61°
2026-04-24 11:03 55.44019 11.69380 5932 ft 91 kts 61°
2026-04-24 11:03 55.44190 11.70450 5931 ft 91 kts 61°
2026-04-24 11:03 55.44362 11.71522 5931 ft 90 kts 61°
2026-04-24 11:03 55.44535 11.72598 5934 ft 90 kts 60°
2026-04-24 11:04 55.44706 11.73653 5933 ft 90 kts 60°
2026-04-24 11:04 55.44882 11.74725 5934 ft 91 kts 61°
2026-04-24 11:04 55.45058 11.75787 5929 ft 91 kts 60°
2026-04-24 11:04 55.45254 11.76927 5814 ft 102 kts 61°
2026-04-24 11:05 55.45477 11.78158 5692 ft 107 kts 61°
2026-04-24 11:05 55.45715 11.79437 5565 ft 111 kts 61°
2026-04-24 11:05 55.45962 11.80731 5439 ft 112 kts 60°
2026-04-24 11:05 55.46212 11.82044 5318 ft 113 kts 61°
2026-04-24 11:06 55.46471 11.83366 5191 ft 114 kts 60°
2026-04-24 11:06 55.46736 11.84697 5058 ft 113 kts 58°
2026-04-24 11:06 55.47095 11.85890 4925 ft 111 kts 50°
2026-04-24 11:06 55.47485 11.87071 4796 ft 111 kts 50°
2026-04-24 11:07 55.48272 11.89432 4528 ft 111 kts 50°
2026-04-24 11:07 55.48667 11.90608 4399 ft 111 kts 50°
2026-04-24 11:07 55.49060 11.91773 4268 ft 111 kts 50°
2026-04-24 11:08 55.49456 11.92965 4144 ft 111 kts 50°
2026-04-24 11:08 55.49817 11.94174 4013 ft 113 kts 54°
2026-04-24 11:08 55.50157 11.95420 3885 ft 113 kts 54°
2026-04-24 11:08 55.50497 11.96668 3760 ft 113 kts 54°
2026-04-24 11:09 55.50840 11.97918 3629 ft 113 kts 54°
2026-04-24 11:09 55.51185 11.99164 3493 ft 113 kts 54°
2026-04-24 11:09 55.51532 12.00416 3362 ft 113 kts 54°
2026-04-24 11:09 55.51870 12.01650 3233 ft 113 kts 54°
2026-04-24 11:10 55.52214 12.02903 3108 ft 113 kts 54°
2026-04-24 11:10 55.52560 12.04155 2978 ft 113 kts 54°
2026-04-24 11:10 55.52908 12.05394 2848 ft 113 kts 54°
2026-04-24 11:10 55.53261 12.06648 2719 ft 112 kts 54°
2026-04-24 11:11 55.53611 12.07880 2592 ft 113 kts 54°
2026-04-24 11:11 55.53962 12.09123 2470 ft 113 kts 54°
2026-04-24 11:11 55.54289 12.10312 2482 ft 103 kts 53°
2026-04-24 11:11 55.54591 12.11433 2489 ft 99 kts 53°
2026-04-24 11:12 55.54878 12.12525 2488 ft 96 kts 53°
2026-04-24 11:12 55.55160 12.13586 2493 ft 95 kts 53°
2026-04-24 11:12 55.55447 12.14649 2494 ft 94 kts 53°
2026-04-24 11:12 55.55724 12.15678 2494 ft 93 kts 54°
2026-04-24 11:13 55.56005 12.16726 2495 ft 93 kts 53°
2026-04-24 11:13 55.56282 12.17756 2497 ft 93 kts 52°
2026-04-24 11:13 55.56561 12.18798 2497 ft 93 kts 53°
2026-04-24 11:13 55.56839 12.19828 2497 ft 93 kts 53°
2026-04-24 11:14 55.57119 12.20869 2495 ft 93 kts 52°
2026-04-24 11:14 55.57393 12.21915 2484 ft 94 kts 53°
2026-04-24 11:14 55.57663 12.23066 2364 ft 105 kts 59°
2026-04-24 11:14 55.57924 12.24311 2243 ft 111 kts 62°
2026-04-24 11:15 55.58163 12.25631 2121 ft 114 kts 63°
2026-04-24 11:15 55.58397 12.26934 2093 ft 107 kts 63°
2026-04-24 11:15 55.58613 12.28177 2097 ft 102 kts 62°
2026-04-24 11:15 55.58813 12.29351 2097 ft 100 kts 63°
2026-04-24 11:16 55.59009 12.30533 2096 ft 98 kts 63°
2026-04-24 11:16 55.59202 12.31684 2089 ft 97 kts 62°
2026-04-24 11:16 55.59398 12.32847 2033 ft 102 kts 62°
2026-04-24 11:16 55.59621 12.34100 1913 ft 109 kts 62°
2026-04-24 11:17 55.59853 12.35393 1784 ft 113 kts 62°
2026-04-24 11:17 55.60098 12.36728 1660 ft 114 kts 63°
2026-04-24 11:17 55.60350 12.38077 1526 ft 115 kts 63°
2026-04-24 11:17 55.60604 12.39416 1418 ft 113 kts 63°
2026-04-24 11:18 55.60842 12.40686 1436 ft 104 kts 63°
2026-04-24 11:18 55.61065 12.41871 1438 ft 100 kts 63°
2026-04-24 11:18 55.61279 12.43020 1450 ft 97 kts 63°
2026-04-24 11:18 55.61308 12.44194 1470 ft 103 kts 103°
2026-04-24 11:19 55.60951 12.45377 1427 ft 107 kts 117°
2026-04-24 11:19 55.60524 12.46468 1416 ft 109 kts 118°
2026-04-24 11:19 55.60105 12.47560 1433 ft 105 kts 118°
2026-04-24 11:19 55.59712 12.48664 1398 ft 107 kts 116°
2026-04-24 11:20 55.59343 12.49818 1395 ft 106 kts 112°
2026-04-24 11:20 55.58960 12.50954 1372 ft 108 kts 116°
2026-04-24 11:20 55.58544 12.52042 1382 ft 106 kts 121°
2026-04-24 11:20 55.58100 12.53109 1364 ft 108 kts 122°
2026-04-24 11:21 55.57658 12.54172 1372 ft 107 kts 120°
2026-04-24 11:21 55.57226 12.55238 1372 ft 107 kts 123°
2026-04-24 11:21 55.56799 12.56309 1376 ft 101 kts 99°
2026-04-24 11:21 55.56989 12.57185 1401 ft 78 kts 38°
2026-04-24 11:22 55.57417 12.57863 1234 ft 84 kts 32°
2026-04-24 11:22 55.57874 12.58484 1035 ft 87 kts 31°
2026-04-24 11:22 55.58370 12.59156 693 ft 92 kts 35°
2026-04-24 11:22 55.58833 12.59820 441 ft 78 kts 36°
2026-04-24 11:23 55.59239 12.60390 167 ft 70 kts 39°
2026-04-24 11:23 55.59568 12.60894 24 ft 52 kts 40°
2026-04-24 11:23 55.59795 12.61233 14 ft 36 kts 40°
2026-04-24 11:23 55.59968 12.61507 14 ft 31 kts 40°
2026-04-24 11:24 55.60134 12.61766 14 ft 32 kts 41°
2026-04-24 11:24 55.60307 12.62036 15 ft 27 kts 40°
2026-04-24 11:24 55.60344 12.62201 15 ft 11 kts 175°
2026-04-24 11:24 55.60284 12.62207 15 ft 7 kts 174°
2026-04-24 11:25 55.60229 12.62278 15 ft 13 kts 94°
2026-04-24 11:25 55.60290 12.62440 16 ft 19 kts 46°
2026-04-24 11:25 55.60411 12.62631 16 ft 26 kts 43°
2026-04-24 11:25 55.60566 12.62862 16 ft 30 kts 49°
2026-04-24 11:26 55.60712 12.63071 16 ft 27 kts 50°
2026-04-24 11:26 55.60789 12.63406 17 ft 28 kts 74°
2026-04-24 11:26 55.60780 12.63630 17 ft 18 kts 125°
2026-04-24 11:26 55.60700 12.63861 18 ft 23 kts 58°
2026-04-24 11:27 55.60832 12.64091 18 ft 32 kts 46°
2026-04-24 11:27 55.61021 12.64409 19 ft 39 kts 41°
2026-04-24 11:27 55.61191 12.64684 19 ft 15 kts 51°
2026-04-24 11:27 55.61116 12.64771 20 ft 21 kts 176°
2026-04-24 11:28 55.61022 12.64931 21 ft 24 kts 98°
2026-04-24 11:28 55.61010 12.65276 21 ft 31 kts 89°
2026-04-24 11:28 55.61033 12.65495 20 ft 14 kts 19°
2026-04-24 11:28 55.61069 12.65440 20 ft 9 kts 214°
2026-04-24 11:29 55.61061 12.65452 20 ft 0 kts 95°